Location: Az?znagar
(16.8373°N, 80.5091°E)
Time: 13:53:23
(UTC+00:00)

CZ-4C R/B - Pass Details

Date: 07 July 2022
Orbit: 395 x 462 km, 97.7° (Epoch: 14 August)

Event Time Altitude Azimuth Distance (km) Brightness Sun altitude
Rises 14:29:45 0° 348° (NNW) 2,462 7.3 -16.6°
Reaches altitude 10° 14:32:13 10° 329° (NNW) 1,598 6.6 -17.1°
Maximum altitude 14:34:38 18° 284° (WNW) 1,189 6.0 -17.6°
Drops below altitude 10° 14:37:04 10° 240° (WSW) 1,608 6.0 -18.1°
Sets 14:39:34 0° 220° (SW) 2,485 6.8 -18.6°
